{"data":{"norad_id":62303,"intl_designator":"2024-239C","name":"STARLINK-32621","alt_names":[],"object_type":"PAYLOAD","status":"ACTIVE","operator":null,"country":"US","launch_date":"2024-12-13","launch_site_code":"AFWTR","launch_vehicle":null,"mission":null,"orbit_class":"UNKNOWN","rcs_meters":null,"size_class":null,"mass_kg":null,"dimensions":null,"purposes":["comms"],"wikipedia_slug":null,"has_3d_model":false,"image_url":null,"decayed_at":null,"tle_current":{"epoch":"2026-09-21T12:00:37.145952Z","epoch_age_seconds":91278,"freshness":"FRESH","line1":"1 62303U 24239C   26264.50042993  .00021475  00000+0  64462-3 0  9999","line2":"2 62303  53.1625 348.7641 0002433  89.2427 270.8855 15.34412866 99581","mean_motion":15.34412866,"eccentricity":0.0002433,"inclination_deg":53.1625,"raan_deg":348.7641,"arg_perigee_deg":89.2427,"mean_anomaly_deg":270.8855,"bstar":0.00064462,"rev_number":9958,"period_min":93.846971171056,"perigee_km":461.00063288432,"apogee_km":464.32936713752,"semimajor_km":6840.8020000109,"source":"CELESTRAK","updated_at":"2026-09-22T09:00:49.571023Z"}}}